User: anonymous   Login
Location: Pian di Sc�
(43.6333°N, 11.5500°E)
Time: 11:48:28
(UTC+00:00)
Language:

Cosmos 1602 Rocket - Orbit

View from above orbital plane
View from above orbital plane
View from above satellite
View from above satellite

Ground track
Ground track

The orbit data is extracted from the following two-line orbital elements,

1 15332U 84105B   20305.10384174  .00000081  00000-0  70195-5 0  9996
2 15332  82.5316 116.4465 0019626 267.5316 228.3276 14.83432173949213
Epoch (UTC): 31 October 2020 02:29:31
Eccentricity: 0.0019626
inclination: 82.5316°
perigee height: 605 km
apogee height: 632 km
right ascension of ascending node: 116.4465°
argument of perigee: 267.5316°
revolutions per day: 14.83432173
mean anomaly at epoch: 228.3276°
orbit number at epoch: 94921

The dashed part of the orbit path shows where the satellite is in the earth's shadow,  

DLR